Cloud_Cover
97 70 78 100 62 8 5 5 5 0 3 5 5 5 5 5 5 5 5 3 1 0 0 0 0 0 0 0 0 0 0 0 0 0 0 0 0 0 0 0 11 5 12
90 72 40 93 73 54 61 2 4 4 5 5 5 5 42 73 11 5 5 5 5 0 0 0 1 0 0 0 0 0 0 0 0 0 0 0 0 0 0 0 9 5 5
100 80 5 29 76 28 5 5 5 3 4 5 5 3 100 97 6 5 5 5 5 5 2 0 12 5 5 5 3 5 4 5 3 0 0 3 0 0 0 0 0 0 4
90 98 79 80 5 5 5 5 5 5 5 5 3 5 99 100 92 5 5 58 5 5 3 3 5 4 52 45 72 41 5 5 5 5 5 5 0 0 0 0 0 0 4
100 100 100 91 5 5 36 98 56 24 78 7 8 8 100 43 93 5 18 35 5 5 5 34 17 5 46 82 50 10 39 25 5 5 5 2 0 0 0 0 0 0 2
100 100 100 100 81 18 95 93 100 100 85 6 99 87 97 94 76 68 69 63 37 37 9 21 5 19 5 99 99 78 38 5 26 28 11 2 0 1 0 0 0 0 0
100 88 100 98 67 91 64 100 100 39 43 91 100 100 100 98 100 100 96 44 100 44 6 56 94 100 75 5 9 5 5 4 0 2 0 0 0 0 0 0 0 2 4
100 100 100 100 100 100 100 97 35 68 89 100 100 100 100 99 98 95 7 55 89 24 24 50 42 84 89 6 5 5 4 0 0 0 0 0 1 4 5 5 2 2 1
100 100 100 100 100 100 100 100 100 100 100 100 100 100 100 100 100 72 82 44 24 6 97 47 96 74 5 2 0 0 0 0 0 4 33 19 2 3 5 5 0 5 1
100 100 100 100 100 100 100 100 100 100 100 100 100 100 98 100 94 100 88 44 7 32 99 93 50 5 5 0 0 0 3 6 8 81 54 9 20 89 5 2 0 2 5
100 100 100 100 100 100 100 100 100 100 100 100 100 100 100 100 100 100 100 95 64 91 81 5 5 9 10 2 25 51 90 100 100 81 95 87 97 4 0 0 0 0 0
100 100 100 100 100 100 100 100 100 100 100 100 100 100 100 100 100 100 100 100 85 5 31 10 31 96 58 18 98 100 96 90 10 5 75 74 2 0 0 0 0 4 0
100 100 100 100 100 100 100 100 100 100 100 100 100 100 100 100 100 100 100 100 95 73 99 100 84 96 78 94 25 97 5 16 86 81 2 0 0 0 1 12 17 11 6
100 100 100 100 100 100 100 100 100 100 100 100 100 100 100 100 100 100 100 100 100 100 100 100 100 100 100 68 55 100 82 37 37 4 0 1 0 2 0 21 23 9 4
100 100 100 100 100 100 100 100 100 100 100 100 100 100 100 100 100 100 100 87 100 96 100 100 100 100 96 100 100 84 90 81 5 5 5 5 5 26 5 39 5 2 18
100 100 100 100 100 100 100 100 100 100 100 100 100 100 100 100 100 100 100 100 100 98 61 73 100 100 98 68 8 88 70 33 5 3 4 5 5 5 5 0 12 26 30
100 100 100 100 100 100 100 100 100 100 100 100 100 100 100 100 100 100 100 100 97 100 100 100 100 100 100 100 100 38 71 26 0 3 3 5 3 0 0 0 0 0 0
100 95 100 100 100 100 100 100 100 100 100 100 100 100 100 100 100 100 100 98 100 100 100 100 100 100 100 84 61 15 6 5 2 5 2 0 0 0 1 0 0 0 0
100 100 100 100 100 100 100 100 100 100 100 100 100 100 100 100 100 100 94 100 100 100 100 100 100 100 92 6 7 3 3 5 1 0 0 0 0 0 0 0 0 0 0
100 100 100 100 100 100 100 100 100 100 100 100 100 100 100 100 100 100 100 100 100 99 99 30 17 8 2 3 4 5 4 1 0 0 0 0 0 0 0 0 0 0 0
100 100 100 100 91 100 100 100 100 100 100 100 100 100 100 100 100 100 100 100 100 99 5 5 5 4 0 5 5 2 0 0 2 0 0 0 0 0 0 0 0 0 0
100 100 100 100 100 95 100 100 100 100 100 100 100 100 100 100 100 100 98 82 5 2 5 5 7 5 5 5 5 6 47 18 2 0 0 0 2 0 0 0 0 0 0
100 100 70 18 16 28 87 73 74 94 100 100 100 100 100 100 100 52 6 5 5 5 5 8 15 5 34 30 96 93 64 11 1 4 3 2 4 3 1 2 5 4 2
100 64 97 100 88 16 5 7 68 42 62 9 95 100 67 34 19 6 6 12 54 51 95 100 77 68 97 55 5 5 5 5 5 5 0 0 3 5 5 5 3 5 5
100 97 100 100 100 98 100 100 100 100 100 61 64 98 72 78 89 76 48 100 100 100 92 99 67 100 44 70 54 31 5 5 0 0 5 4 1 3 3 5 5 1 5
25 32 6 23 64 56 39 16 93 83 89 52 48 100 100 63 96 100 100 100 82 96 91 94 100 100 100 75 95 5 5 0 3 3 0 3 5 5 5 5 5 5 5